Flag for Japan Weather past 2 weeks in Hiroshima, Japan

Now
48 °F

Passing clouds.


Feels Like: 48 °F
Forecast: 29 / 44 °F
Wind: No wind

Location: Iwakuni Marine Corps Air Station

Current Time: Jan 27, 2015 at 10:16:11 PM

Latest Report: Jan 27, 2015 at 8:55 PM


Visibility: N/A

Pressure: 30.04 "Hg

Humidity: 68%

Dew point: 38 °F

Location of HiroshimaLocation

Historic Weather in Hiroshima — Graph

°F

Hiroshima temperature yesterday

Maximum temperature yesterday: 49 °F (at 11:55 AM)
Minimum temperature yesterday: 45 °F (at 12:55 AM)
Average temperature yesterday: 48 °F

Past Weeks' High & Low Weather Summary

 TemperatureHumidityPressure
High58 °F (Jan 27, 1:55 PM)93% (Jan 15, 5:55 AM)30.57 "Hg (Jan 15, 5:55 AM)
Low33 °F (Jan 18, 4:55 AM)37% (Jan 20, 1:55 PM)29.75 "Hg (Jan 22, 2:55 PM)
Average45 °F71%30.17 "Hg
* Reported Jan 12 8:55 PM — Jan 27 8:55 PM, Hiroshima, Weather by CustomWeather, © 2014

Note: Actual official high and low records may vary slightly from our data, if they occured in-between our weather recording intervals... More about our weather records

Advertising

Hiroshima weather history for previous 24 hours

 ConditionsComfort  
Time TempWeatherWind HumidityBarometerVisibility
8:55 PM
Jan 27
48 °FPassing clouds.No wind68%30.04 "HgN/A
7:55 PM48 °FPassing clouds.3 mph71%30.03 "HgN/A
6:55 PM49 °FPassing clouds.6 mph66%30.02 "HgN/A
5:55 PM52 °FOvercast.7 mph55%29.99 "HgN/A
4:55 PM53 °FOvercast.12 mph52%29.99 "HgN/A
3:55 PM56 °FPartly sunny.13 mph49%29.97 "HgN/A
2:55 PM57 °FScattered clouds.13 mph42%29.96 "HgN/A
1:55 PM58 °FScattered clouds.8 mph47%29.96 "HgN/A
12:55 PM57 °FScattered clouds.9 mph46%29.97 "HgN/A
11:55 AM57 °FScattered clouds.5 mph64%29.99 "HgN/A
10:55 AM55 °FScattered clouds.5 mph69%30.01 "HgN/A
9:55 AM52 °FScattered clouds.3 mph83%30.02 "HgN/A
8:55 AM49 °FPartly sunny.7 mph86%30.02 "HgN/A
7:55 AM48 °FBroken clouds.5 mph89%30.04 "HgN/A
6:55 AM48 °FPartly cloudy.8 mph89%30.04 "HgN/A
5:55 AM49 °FPassing clouds.10 mph86%30.02 "HgN/A
4:55 AM49 °FPassing clouds.3 mph90%30.00 "HgN/A
3:55 AM50 °FPassing clouds.No wind89%29.99 "HgN/A
2:55 AM48 °FFog.3 mph93%29.99 "Hg6 mi
1:55 AM48 °FFog.5 mph93%30.00 "Hg3 mi
12:55 AM48 °FFog.5 mph93%29.98 "Hg5 mi
11:55 PM
Jan 26
49 °FFog.No wind93%29.99 "Hg5 mi
10:55 PM48 °FFog.3 mph93%30.00 "Hg5 mi
Weather by CustomWeather, © 2014

See weather overviewHow to use our weather pages